Location: Carnières
(50.1682°N, 3.3474°E)
Time: 20:41:34
(UTC+00:00)

SL-16 R/B - Pass Details

Date: 06 August 2024
Orbit: 842 x 845 km, 71.0° (Epoch: 10 September)

Event Time Altitude Azimuth Distance (km) Brightness Sun altitude
Exits shadow 23:57:50 32° 120° (ESE) 1,424 3.1 -23.5°
Maximum altitude 23:58:30 33° 106° (ESE) 1,399 3.2 -23.5°
Drops below altitude 10° 00:03:29 10° 44° (NE) 2,474 5.2 -23.5°
Sets 00:06:09 0° 35° (NE) 3,414 6.3 -23.4°
